Location: Ab? ar R?sh Ba?r?
(24.1861°N, 32.8847°E)
Time: 00:27:12
(UTC+00:00)

COSMOS 2428 - Pass Details

Date: 24 October 2021
Orbit: 844 x 857 km, 70.9° (Epoch: 05 December)

Event Time Altitude Azimuth Distance (km) Brightness Sun altitude
Rises 15:53:52 0° 160° (SSE) 3,389 5.7 -9.7°
Reaches altitude 10° 15:57:04 10° 142° (SE) 2,456 4.8 -10.4°
Maximum altitude 16:00:46 18° 101° (E) 1,947 4.0 -11.2°
Enters shadow 16:02:49 15° 75° (ENE) 2,117 4.1 -11.7°
